FW6531 Weather Reports


time (UTC)temp
C
wind
direction
speed
KPH
gust
KPH
rain 1hr
cm
rain 24hr
cm
rain mn
cm
humidity
%
barometer
mb
20260504050525 4 263 3.2 12.9 0.00 0.00 0.00 70 1007.1
20260504050024 4 278 1.6 8.0 0.00 0.00 0.00 71 1007.1
20260504045522 5 206 1.6 8.0 0.00 0.00 0.00 71 1007.0
20260504045021 5 193 3.2 6.4 0.00 0.00 0.00 70 1007.2
20260504044519 5 219 3.2 8.0 0.00 0.00 0.00 70 1007.1
20260504044020 5 215 3.2 9.7 0.00 0.00 0.00 70 1007.1
20260504043519 5 204 4.8 9.7 0.00 0.00 0.00 71 1007.1
20260504043016 4 196 4.8 9.7 0.00 0.00 0.00 71 1007.1
20260504042514 4 239 4.8 9.7 0.00 0.00 0.00 72 1007.1
20260504042013 4 242 3.2 8.0 0.00 0.00 0.00 73 1007.0
20260504041513 3 214 3.2 8.0 0.00 0.00 0.00 73 1007.1
20260504041012 3 215 3.2 6.4 0.00 0.00 0.00 73 1007.2
20260504040511 4 213 3.2 9.7 0.00 0.00 0.00 72 1007.2
20260504040010 4 204 3.2 9.7 0.00 0.00 0.00 71 1007.1
20260504035510 4 252 3.2 6.4 0.00 0.00 0.00 70 1007.0
20260504035008 5 253 1.6 4.8 0.00 0.00 0.00 70 1007.0
20260504034508 5 253 3.2 6.4 0.00 0.00 0.00 69 1007.0
20260504034006 5 254 1.6 6.4 0.00 0.00 0.00 69 1007.0
20260504033507 5 254 3.2 6.4 0.00 0.00 0.00 68 1007.0
20260504033004 5 254 3.2 4.8 0.00 0.00 0.00 67 1006.9
20260504032506 5 255 3.2 6.4 0.00 0.00 0.00 67 1006.9
20260504032004 5 256 3.2 6.4 0.00 0.00 0.00 66 1006.9
20260504031503 6 216 3.2 8.0 0.00 0.00 0.00 65 1006.9
20260504031002 6 211 3.2 8.0 0.00 0.00 0.00 65 1007.0
20260504030502 6 207 1.6 9.7 0.00 0.00 0.00 64 1007.0
20260504030003 6 202 3.2 9.7 0.00 0.00 0.00 63 1006.9
20260504025502 6 264 3.2 11.3 0.00 0.00 0.00 62 1006.9
20260504025002 6 267 3.2 9.7 0.00 0.00 0.00 60 1006.9
20260504024502 7 267 1.6 9.7 0.00 0.00 0.00 60 1006.9
20260504024001 7 267 3.2 9.7 0.00 0.00 0.00 59 1006.9
20260504023501 7 265 3.2 9.7 0.00 0.00 0.00 59 1006.9
20260504023001 7 267 3.2 9.7 0.00 0.00 0.00 59 1007.0
20260504022601 7 269 1.6 9.7 0.00 0.00 0.00 59 1007.0
20260504022000 7 279 3.2 12.9 0.00 0.00 0.00 58 1007.0
20260504021612 7 290 3.2 12.9 0.00 0.00 0.00 58 1007.1
20260504021103 7 263 4.8 12.9 0.00 0.00 0.00 58 1007.0
20260504020601 7 265 6.4 12.9 0.00 0.00 0.00 58 1007.0
20260504020107 7 264 4.8 12.9 0.00 0.03 0.00 58 1006.9
20260504015600 7 265 3.2 11.3 0.00 0.03 0.00 58 1006.8
20260504015100 7 265 4.8 11.3 0.00 0.03 0.00 58 1006.9
20260504014600 7 235 4.8 12.9 0.00 0.03 0.00 57 1006.9
20260504014059 7 264 4.8 11.3 0.00 0.03 0.00 56 1006.9
20260504013559 7 275 3.2 11.3 0.00 0.03 0.00 55 1006.9
20260504013110 7 269 4.8 11.3 0.00 0.03 0.00 55 1006.8
20260504012559 7 259 3.2 11.3 0.00 0.03 0.00 55 1006.8
20260504012058 7 274 3.2 11.3 0.00 0.03 0.00 54 1006.7
20260504011600 7 291 3.2 11.3 0.00 0.03 0.00 53 1006.6
20260504011057 7 271 4.8 11.3 0.00 0.03 0.00 53 1006.5
20260504010558 8 267 4.8 12.9 0.00 0.03 0.00 53 1006.4
20260504010120 8 277 4.8 12.9 0.00 0.03 0.00 52 1006.3
20260504005557 8 328 4.8 14.5 0.00 0.03 0.00 52 1006.3
20260504005056 8 263 3.2 14.5 0.00 0.03 0.00 51 1006.2
20260504004558 8 265 4.8 14.5 0.00 0.03 0.00 51 1006.1
20260504004056 8 263 4.8 14.5 0.00 0.03 0.00 51 1006.1
20260504003556 8 272 4.8 12.9 0.00 0.03 0.00 50 1006.1
20260504003056 8 297 6.4 12.9 0.00 0.03 0.00 50 1005.9
20260504002557 8 270 4.8 16.1 0.00 0.03 0.00 50 1005.8
20260504002055 8 313 8.0 17.7 0.00 0.03 0.00 49 1005.7
20260504001610 8 317 9.7 22.5 0.00 0.03 0.00 49 1005.6
20260504001056 8 324 8.0 22.5 0.00 0.03 0.00 48 1005.5
20260504000553 8 325 9.7 20.9 0.00 0.03 0.00 48 1005.4
20260504000058 8 319 8.0 17.7 0.00 0.03 0.00 48 1005.3
20260503235553 8 306 4.8 17.7 0.00 0.03 0.00 48 1005.2
20260503235052 9 306 4.8 17.7 0.00 0.03 0.00 46 1005.1
20260503234552 9 309 9.7 25.7 0.00 0.03 0.00 46 1005.1
20260503234051 9 304 9.7 27.4 0.00 0.03 0.00 45 1004.9
20260503233555 9 317 14.5 32.2 0.00 0.03 0.00 44 1004.8
20260503233052 9 351 11.3 32.2 0.00 0.03 0.00 44 1004.8
20260503232553 9 321 14.5 30.6 0.00 0.03 0.00 44 1004.7
20260503232051 9 325 11.3 33.8 0.00 0.03 0.00 44 1004.7
20260503231553 10 26 16.1 33.8 0.00 0.03 0.00 43 1004.5
20260503231050 10 334 22.5 48.3 0.00 0.03 0.00 43 1004.4
20260503230553 10 337 29.0 48.3 0.00 0.03 0.00 42 1004.3
20260503230050 10 331 16.1 41.8 0.00 0.03 0.00 43 1004.1
20260503225549 10 313 24.1 41.8 0.00 0.03 0.00 42 1004.0
20260503225052 10 313 22.5 38.6 0.00 0.03 0.00 42 1004.0
20260503224551 10 312 19.3 38.6 0.00 0.03 0.00 42 1003.8
20260503224047 10 300 17.7 40.2 0.00 0.03 0.00 43 1003.8
20260503223548 10 315 17.7 40.2 0.00 0.03 0.00 43 1003.7
20260503223047 10 327 12.9 38.6 0.00 0.03 0.00 44 1003.6
20260503222546 10 310 16.1 35.4 0.00 0.03 0.00 44 1003.5
20260503222046 10 321 14.5 35.4 0.00 0.03 0.00 45 1003.4
20260503221545 10 312 16.1 37.0 0.00 0.03 0.00 43 1003.2
20260503221047 10 325 14.5 37.0 0.00 0.03 0.00 45 1003.1
20260503220546 11 280 9.7 37.0 0.00 0.03 0.00 45 1003.0
20260503220046 11 306 12.9 37.0 0.00 0.03 0.00 45 1003.1
20260503215545 11 290 14.5 33.8 0.00 0.03 0.00 45 1003.0
20260503215044 11 308 19.3 33.8 0.00 0.03 0.00 45 1002.8
20260503214551 11 284 11.3 32.2 0.00 0.03 0.00 46 1002.9
20260503214046 11 274 16.1 32.2 0.00 0.03 0.00 46 1002.8
20260503213543 11 5 9.7 29.0 0.00 0.03 0.00 47 1002.8
20260503213106 11 331 14.5 29.0 0.00 0.03 0.00 46 1002.9
20260503212542 11 308 12.9 22.5 0.00 0.03 0.00 47 1002.8
20260503212045 11 305 9.7 27.4 0.00 0.03 0.00 47 1002.8
20260503211605 11 297 12.9 27.4 0.00 0.03 0.00 46 1002.6
20260503211045 11 316 16.1 30.6 0.00 0.03 0.00 47 1002.7
20260503210540 11 344 17.7 30.6 0.00 0.03 0.00 46 1002.5
20260503210040 11 322 12.9 27.4 0.00 0.03 0.00 48 1002.6
20260503205540 11 325 12.9 27.4 0.00 0.03 0.00 48 1002.6
20260503205043 11 321 11.3 20.9 0.00 0.03 0.00 52 1002.6
20260503204557 11 322 11.3 20.9 0.00 0.03 0.00 50 1002.6
20260503204041 11 347 9.7 24.1 0.00 0.03 0.00 52 1002.6
20260503203537 11 327 11.3 27.4 0.00 0.03 0.00 53 1002.7
20260503203040 11 291 9.7 27.4 0.00 0.03 0.00 53 1002.7
20260503202537 11 331 11.3 29.0 0.00 0.03 0.00 52 1002.7
20260503202039 11 21 9.7 29.0 0.00 0.03 0.00 49 1002.6
20260503201538 11 317 16.1 41.8 0.00 0.03 0.00 50 1002.7
20260503201035 11 313 11.3 41.8 0.00 0.03 0.00 48 1002.6
20260503200534 11 311 14.5 30.6 0.00 0.03 0.00 50 1002.6
20260503200034 11 305 14.5 38.6 0.00 0.03 0.00 50 1002.8
20260503195531 10 5 19.3 38.6 0.00 0.03 0.00 51 1002.8
20260503195029 10 287 19.3 30.6 0.00 0.03 0.00 51 1002.8
20260503194529 10 322 11.3 25.7 0.00 0.03 0.00 55 1002.8
20260503194028 10 22 9.7 25.7 0.00 0.03 0.00 55 1002.9
20260503193528 10 318 12.9 25.7 0.00 0.03 0.00 54 1002.9
20260503193029 10 330 11.3 22.5 0.00 0.03 0.00 55 1002.9
20260503192526 10 22 8.0 25.7 0.00 0.03 0.00 56 1003.0
20260503192026 10 5 11.3 25.7 0.00 0.03 0.00 55 1003.0
20260503191526 10 309 9.7 24.1 0.00 0.03 0.00 59 1003.0
20260503191026 10 38 12.9 24.1 0.00 0.03 0.00 55 1003.0
20260503190525 10 344 6.4 22.5 0.00 0.03 0.00 58 1003.1
20260503190024 10 342 11.3 25.7 0.00 0.03 0.00 57 1003.1
20260503185523 10 304 9.7 25.7 0.00 0.03 0.00 58 1003.2
20260503185025 10 25 8.0 20.9 0.00 0.03 0.00 60 1003.1
20260503184527 10 323 9.7 30.6 0.00 0.03 0.00 60 1003.0
20260503184022 10 337 9.7 30.6 0.00 0.03 0.00 61 1003.1
20260503183520 10 346 14.5 29.0 0.00 0.03 0.00 61 1003.2
20260503183021 10 348 12.9 22.5 0.00 0.03 0.00 62 1003.1
20260503182520 10 30 9.7 19.3 0.00 0.03 0.00 64 1003.2
20260503182020 9 304 9.7 24.1 0.00 0.03 0.00 64 1003.2
20260503181519 9 23 11.3 22.5 0.00 0.03 0.00 64 1003.1
20260503181018 9 312 9.7 25.7 0.00 0.03 0.00 65 1003.3
20260503180518 9 336 12.9 25.7 0.00 0.03 0.00 64 1003.2
20260503180026 9 312 14.5 25.7 0.00 0.03 0.00 64 1003.3
20260503175515 9 319 12.9 30.6 0.00 0.03 0.00 66 1003.3
20260503175014 9 17 16.1 32.2 0.00 0.03 0.00 66 1003.2
20260503174520 8 347 19.3 43.5 0.00 0.03 0.00 66 1003.2
20260503174013 8 323 16.1 43.5 0.00 0.03 0.00 65 1003.3
20260503173514 8 360 19.3 35.4 0.00 0.03 0.00 65 1003.1
20260503173014 8 328 20.9 35.4 0.00 0.03 0.00 67 1003.2
20260503172512 8 22 12.9 46.7 0.00 0.03 0.00 68 1003.2
20260503172012 8 355 14.5 46.7 0.00 0.03 0.00 69 1003.2
20260503171516 8 287 16.1 29.0 0.00 0.03 0.00 70 1003.2
20260503171013 8 350 12.9 27.4 0.00 0.03 0.00 73 1003.2
20260503170511 8 23 17.7 25.7 0.00 0.03 0.00 73 1003.2